Weather in Mago

Russia / Khabarovsk Krai     53°15′05″N   140°10′38″E
temp.,
°C
wind,
m/s
gust,
m/s
humid.,
%
clouds,
%
prec.,
mm/h
press.,
hPa
HPBL,
m
27 february, sat
sat2701:00−23wsw119610 0.0 102820
04:00−24sw11955 0.0 102820
07:00−25s119714 0.0 102720
10:00−19ese008927 0.0 1027109
13:00−13w12800 0.0 1026308
16:00−12wnw12836 0.0 1024293
19:00−16ene1192100 0.0 102420
22:00−16ese2294100 0.0 102122
28 february, sun
sun2801:00−15ese2395100 0.0 101784
04:00−16e2397100 0.6 1013115
07:00−14ne1197100 1.3 101134
10:00−13w2593100 1.8 1010372
13:00−11w4686100 0.1 1011813
16:00−13wnw5884100 0.3 1012742
19:00−19wnw3108892 0.0 1014405
22:00−23wsw229692 0.0 101537
1 march, mon
mon101:00−22sw229790 0.0 101646
04:00−19wsw259994 0.3 1018203
07:00−19w31094100 0.3 1019561
10:00−19wnw51074100 0.3 1020727
13:00−18wnw597137 0.0 10211115
16:00−18wnw5107554 0.0 10211213
19:00−22wnw238859 0.0 102233
22:00−24sw128979 0.0 102320
2 march, tue
tue201:00−25wsw228783 0.0 102327
04:00−27sw128688 0.0 102420
07:00−29s118557 0.0 102519
10:00−22sw268678 0.0 1025353
13:00−20wsw357346 0.0 1026998
16:00−19wsw467260 0.0 10251137
19:00−24sw128545 0.0 102620
22:00−26sse128754 0.0 102719
3 march, wed
wed301:00−28ssw129134 0.0 102519
04:00−30sse119117 0.0 102519
07:00−31sse11890 0.0 102419
10:00−25wsw12820 0.0 1023171
13:00−19w24740 0.0 1021424
16:00−17w13760 0.0 1018384
19:00−22e11880 0.0 101720
22:00−23ese12904 0.0 101520